| time (UTC) | temp F | wind direction | speed knots | gust knots | rain 1hr in | rain 24hr in | rain mn in | humidity % | barometer mb |
| 20260505193921 | 59 | 0.0 | 0.0 | 0.00 | 0.00 | 0.00 | 89 | 1069.7 | |
| 20260505191916 | 59 | 0.0 | 0.0 | 0.00 | 0.00 | 0.00 | 87 | 1069.6 | |
| 20260505185910 | 60 | 0.0 | 0.0 | 0.00 | 0.00 | 0.00 | 84 | 1069.4 | |
| 20260505183856 | 61 | 0.0 | 0.0 | 0.00 | 0.00 | 0.00 | 81 | 1069.3 | |
| 20260505181851 | 63 | 0.0 | 0.0 | 0.00 | 0.00 | 0.00 | 76 | 1069.4 | |
| 20260505173840 | 68 | 0.0 | 0.0 | 0.00 | 0.00 | 0.00 | 62 | 1069.8 | |
| 20260505171834 | 70 | 0.0 | 0.0 | 0.00 | 0.00 | 0.00 | 59 | 1069.9 | |
| 20260505165829 | 69 | 0.0 | 0.0 | 0.00 | 0.00 | 0.00 | 60 | 1070.0 | |
| 20260505163822 | 72 | 0.0 | 0.0 | 0.00 | 0.00 | 0.00 | 55 | 1070.1 | |
| 20260505161817 | 71 | 0.0 | 0.0 | 0.00 | 0.00 | 0.00 | 58 | 1070.2 | |
| 20260505121658 | 65 | 0.0 | 0.0 | 0.00 | 0.00 | 0.00 | 69 | 1070.8 | |
| 20260505115652 | 64 | 0.0 | 0.0 | 0.00 | 0.00 | 0.00 | 74 | 1070.7 | |
| 20260505113647 | 65 | 0.0 | 0.0 | 0.00 | 0.00 | 0.00 | 73 | 1070.7 | |
| 20260505111642 | 65 | 0.0 | 0.0 | 0.00 | 0.00 | 0.00 | 75 | 1070.7 | |
| 20260505101628 | 64 | 0.0 | 0.0 | 0.00 | 0.00 | 0.00 | 77 | 1070.6 | |
| 20260505093617 | 63 | 0.0 | 0.0 | 0.00 | 0.00 | 0.00 | 83 | 1070.4 | |
| 20260505091612 | 63 | 0.0 | 0.0 | 0.00 | 0.00 | 0.00 | 82 | 1070.4 | |
| 20260505085609 | 63 | 0.0 | 0.0 | 0.00 | 0.00 | 0.00 | 84 | 1070.4 | |
| 20260505083603 | 61 | 0.0 | 0.0 | 0.00 | 0.00 | 0.00 | 88 | 1070.4 | |
| 20260505081557 | 61 | 0.0 | 0.0 | 0.00 | 0.00 | 0.00 | 89 | 1070.1 | |
| 20260505075552 | 60 | 0.0 | 0.0 | 0.00 | 0.00 | 0.00 | 89 | 1070.1 | |
| 20260505073547 | 61 | 0.0 | 0.0 | 0.00 | 0.00 | 0.00 | 86 | 1069.9 | |
| 20260505071542 | 61 | 0.0 | 0.0 | 0.00 | 0.00 | 0.00 | 88 | 1069.9 | |
| 20260505065536 | 60 | 0.0 | 0.0 | 0.00 | 0.00 | 0.00 | 90 | 1069.7 | |
| 20260505063531 | 59 | 0.0 | 0.0 | 0.00 | 0.00 | 0.00 | 94 | 1069.8 | |
| 20260505061525 | 59 | 0.0 | 0.0 | 0.00 | 0.00 | 0.00 | 93 | 1069.0 | |
| 20260505055520 | 58 | 0.0 | 0.0 | 0.00 | 0.00 | 0.00 | 95 | 1068.9 | |
| 20260505053515 | 57 | 0.0 | 0.0 | 0.00 | 0.00 | 0.00 | 97 | 1068.9 | |
| 20260505051510 | 57 | 0.0 | 0.0 | 0.00 | 0.00 | 0.00 | 99 | 1068.7 | |
| 20260505041455 | 56 | 0.0 | 0.0 | 0.00 | 0.00 | 0.00 | 99 | 1068.5 | |
| 20260505035451 | 57 | 0.0 | 0.0 | 0.00 | 0.00 | 0.00 | 99 | 1068.8 | |
| 20260505033446 | 57 | 0.0 | 0.0 | 0.00 | 0.00 | 0.00 | 97 | 1068.6 | |
| 20260505031440 | 57 | 0.0 | 0.0 | 0.00 | 0.00 | 0.00 | 94 | 1068.6 | |
| 20260505025435 | 57 | 0.0 | 0.0 | 0.00 | 0.00 | 0.00 | 96 | 1069.0 | |
| 20260505023431 | 56 | 0.0 | 0.0 | 0.00 | 0.00 | 0.00 | 94 | 1069.3 | |
| 20260505021425 | 56 | 0.0 | 0.0 | 0.00 | 0.00 | 0.00 | 96 | 1070.1 | |
| 20260505015420 | 57 | 0.0 | 0.0 | 0.00 | 0.00 | 0.00 | 93 | 1070.3 | |
| 20260505013416 | 57 | 0.0 | 0.0 | 0.00 | 0.00 | 0.00 | 94 | 1070.3 | |
| 20260505011410 | 56 | 0.0 | 0.0 | 0.00 | 0.00 | 0.00 | 93 | 1070.1 | |
| 20260505005405 | 56 | 0.0 | 0.0 | 0.00 | 0.00 | 0.00 | 91 | 1070.4 | |
| 20260505003400 | 56 | 0.0 | 0.0 | 0.00 | 0.00 | 0.00 | 95 | 1071.0 | |
| 20260505001355 | 57 | 0.0 | 0.0 | 0.00 | 0.00 | 0.00 | 93 | 1071.4 | |
| 20260504233346 | 57 | 0.0 | 0.0 | 0.00 | 0.00 | 0.00 | 87 | 1071.6 | |
| 20260504231341 | 56 | 0.0 | 0.0 | 0.00 | 0.00 | 0.00 | 92 | 1071.8 | |
| 20260504223330 | 57 | 0.0 | 0.0 | 0.00 | 0.00 | 0.00 | 90 | 1072.6 | |
| 20260504221326 | 58 | 0.0 | 0.0 | 0.00 | 0.00 | 0.00 | 85 | 1072.4 | |
| 20260504215321 | 58 | 0.0 | 0.0 | 0.00 | 0.00 | 0.00 | 85 | 1073.1 | |
| 20260504213316 | 58 | 0.0 | 0.0 | 0.00 | 0.00 | 0.00 | 82 | 1073.4 | |
| 20260504211311 | 59 | 0.0 | 0.0 | 0.00 | 0.00 | 0.00 | 75 | 1073.4 | |
| 20260504205306 | 58 | 0.0 | 0.0 | 0.00 | 0.00 | 0.00 | 77 | 1073.8 | |
| 20260504203301 | 60 | 0.0 | 0.0 | 0.00 | 0.00 | 0.00 | 73 | 1074.1 | |
| 20260504201257 | 60 | 0.0 | 0.0 | 0.00 | 0.00 | 0.00 | 66 | 1073.8 | |
| 20260504195251 | 61 | 0.0 | 0.0 | 0.00 | 0.00 | 0.00 | 67 | 1073.7 |